Regional Weather Roundup
Issued by NWS

Home | Current Version | Previous Version | Graphics & Text | Print | Product List | Glossary On
Versions: 1 2 3 4 5 6 7 8 9 10 11 12 13 14 15 16 17 18 19 20 21 22 23 24 25 26 27 28 29 30 31 32 33 34 35 36 37 38 39 40 41 42 43 44 45 46 47 48 49 50
000
ASUS43 KDMX 032207
RWRIA

WEATHER ROUNDUP FOR IOWA
NATIONAL WEATHER SERVICE DES MOINES IA
500 PM CDT SUN MAY 03 2015

NOTE: "FAIR" INDICATES FEW OR NO CLOUDS BELOW 12,000 FEET WITH NO
SIGNIFICANT WEATHER AND/OR OBSTRUCTIONS TO VISIBILITY.

* - THESE STATIONS ARE NOT NWS STATIONS...THUS NOT UNDER NWS
QUALITY CONTROL.  THEY ALSO DO NOT REPORT WEATHER SUCH
AS PRECIPITATION OR FOG.

IAZ001>003-012>014-020>022-031>034-043>046-032300-
   NORTHWEST IOWA

CITY           SKY/WX    TMP DP  RH WIND       PRES   REMARKS
CARROLL *      SUNNY     84  61  45 S15G22    29.74S HX  84
CHEROKEE *     MOSUNNY   82  52  34 CALM      29.73S HX  81
DENISON *      SUNNY     84  61  45 S13G21    29.72S HX  84
LE MARS *      PTSUNNY   86  54  32 N6G18     29.74R HX  84
ORANGE CITY *  SUNNY     81  54  39 N18G29    29.75R HX  80
SHELDON *      PTSUNNY   79  59  50 N30G38    29.74S HX  80
SIOUX CITY     PTSUNNY   85  55  35 NE8       29.72S HX  83
SPENCER        MOSUNNY   84  52  33 CALM      29.72F HX  82
STORM LAKE *   MOSUNNY   84  55  37 SW13      29.75S HX  83
$$

IAZ055>058-069>071-079>083-090>094-032300-
   SOUTHWEST IOWA

CITY           SKY/WX    TMP DP  RH WIND       PRES   REMARKS
ATLANTIC *     SUNNY     79  61  53 S10       29.77S HX  80
AUDUBON *      SUNNY     81  63  54 S10G20    29.78S HX  82
CLARINDA *     SUNNY     81  59  47 SW15      29.79R HX  81
COUNCIL BLFS * SUNNY     77  64  65 S6        29.74F
CRESTON *      SUNNY     77  61  57 SW14G21   29.80R
HARLAN  *      SUNNY     81  61  50 S14G21    29.78F HX  81
LAMONI         MOSUNNY   83  58  42 S21       29.79F HX  83
RED OAK *      PTSUNNY   75  63  64 SW14G24   29.78R
SHENANDOAH *   SUNNY     82  61  47 S12       29.77F HX  83
$$

IAZ047>049-059>061-072>074-084-032300-
   CENTRAL IOWA

CITY           SKY/WX    TMP DP  RH WIND       PRES   REMARKS
AMES           MOSUNNY   81  60  48 S17       29.76F HX  82
ANKENY *       SUNNY     81  59  47 SW13G22   29.77S HX  81
CHARITON *     SUNNY     81  59  47 S21G26    29.80S HX  81
DES MOINES     PTSUNNY   83  57  41 SW14G24   29.77F HX  82
GRINNELL*      SUNNY     81  55  41 S15       29.80S HX  80
KNOXVILLE *    SUNNY     81  57  44 SW13G23   29.79R HX  81
MARSHALLTOWN   MOSUNNY   80  59  48 S12G23    29.78S HX  81
PELLA *          N/A     81  63  54 SW13G22   29.81S HX  82
PERRY *          N/A     82  57  42 SW17      29.76S HX  82
$$

IAZ004>006-015-016-023>025-035-036-032300-
   NORTH CENTRAL IOWA

CITY           SKY/WX    TMP DP  RH WIND       PRES   REMARKS
ALGONA *       MOSUNNY   86  55  35 S16       29.73F HX  84
CLARION *      MOSUNNY   86  57  37 SW17G26   29.75S HX  85
ESTHERVILLE    MOSUNNY   84  51  31 E6        29.73F HX  82
FORT DODGE *   MOSUNNY   82  61  47 S13       29.76S HX  83
MASON CITY     MOSUNNY   83  58  42 S16       29.76F HX  83
FOREST CITY *  MOSUNNY   81  55  41 SE14G21   29.74S HX  80
IOWA FALLS *     N/A     81  59  47 S17       29.79S HX  81
$$

IAZ007>011-017>019-026>030-037>042-050>054-066-032300-
   NORTHEAST IOWA

CITY           SKY/WX    TMP DP  RH WIND       PRES   REMARKS
CEDAR RAPIDS   MOSUNNY   82  59  45 S12G23    29.81F HX  82
CHARLES CITY * SUNNY     82  55  39 S13G20    29.78F HX  82
CLINTON *      MOSUNNY   72  63  73 E12       29.89F
DECORAH *      SUNNY     82  52  34 S10       29.79S HX  81
DUBUQUE        PTSUNNY   72  61  68 S10       29.86F
MONTICELLO *   SUNNY     73  63  68 SE8       29.84F
OELWEIN *      MOSUNNY   81  59  47 S16G24    29.81F HX  81
WATERLOO       MOSUNNY   80  58  46 S14       29.78F HX  80
$$

IAZ064-065-067-068-078-032300-
   EAST CENTRAL IOWA

CITY           SKY/WX    TMP DP  RH WIND       PRES   REMARKS
DAVENPORT      PTSUNNY   74  60  61 CALM      29.85F
IOWA CITY      MOSUNNY   82  57  42 S16G22    29.83F HX  82
MT. PLEASANT * MOSUNNY   84  54  34 S17G29    29.83F HX  83
MUSCATINE *    SUNNY     82  57  42 SW16G25   29.82F HX  82
QUAD CITIES    MOSUNNY   83  55  38 SW20G25   29.83F HX  82
$$

IAZ062-063-075>077-085>089-095>099-032300-
   SOUTHEAST IOWA

CITY           SKY/WX    TMP DP  RH WIND       PRES   REMARKS
BURLINGTON     MOSUNNY   82  56  40 S18G25    29.85F HX  82
FAIRFIELD *    SUNNY     82  55  39 S21       29.82S HX  82
FORT MADISON * SUNNY     82  55  39 S16       29.85F HX  82
KEOKUK *       SUNNY     82  57  42 S15G28    29.84F HX  82
OSKALOOSA *      N/A     82  54  36 SW22G30   29.82R HX  81
CENTERVILLE *  SUNNY     81  63  54 S15       29.83F HX  82
OTTUMWA        SUNNY     82  57  42 SW20G28   29.81S HX  82
WASHINGTON *   MOSUNNY   84  61  45 SW20      29.82S HX  84
$$

ABBREVIATIONS USED IN REMARKS
   TC - TEMPERATURES IN CELSIUS
  WCI - WIND CHILL INDEX
   HX - HEAT INDEX
  VSB - VISIBILITY
$$




USA.gov is the U.S. government's official web portal to all federal, state and local government web resources and services.